UFO 4 (USA 108)

Last updated on Wed Sep 17 2025 00:02:45 GMT+0000 (Coordinated Universal Time)

1 23467U 95003A 25259.57197559 -.00000036 00000+0 00000+0 0 9998 2 23467 9.6802 14.0961 0004022 164.2365 195.6389 1.00272857112204
UTC large
Height (km)
Speed (km/s)
/
Latitude / Longitude
Inclination (degrees)
Orbital Period (minutes)
Azimuth
Elevation
Range (km)
Doppler Factor

Next 0 passes for location: London (51.5072 / 0.1276)

Sorry there are no passes over London.